Location: Ffald-y-Brenin
(52.0833°N, 4.0000°W)
Time: 17:49:24
(UTC+00:00)

NOSS 3-4 (A) - Pass Details

Date: 18 February 2020
Orbit: 900 x 1313 km, 63.4° (Epoch: 29 March)

Event Time Altitude Azimuth Distance (km) Brightness Sun altitude
Exits shadow 06:29:30 - 313° (NW) 3,324 5.8 -9.4°
Reaches altitude 10° 06:30:53 10° 315° (NW) 2,842 5.5 -9.1°
Maximum altitude 06:37:35 63° 37° (NE) 1,231 4.2 -8.1°
Drops below altitude 10° 06:45:00 10° 118° (ESE) 3,133 7.6 -7.0°
Sets 06:47:55 0° 122° (ESE) 4,149 8.3 -6.6°
